Regional Weather Roundup
Issued by NWS

Home | Current Version | Previous Version | Text Only | Print | Product List | Glossary On
Versions: 1 2 3 4 5 6 7 8 9 10 11 12 13 14 15 16 17 18 19 20 21 22 23 24 25 26 27 28 29 30 31 32 33 34 35 36 37 38 39 40 41 42 43 44 45 46 47 48 49 50
000
ASUS44 KFWD 281215
RWRTX
NORTH TEXAS HOURLY WEATHER ROUNDUP
NATIONAL WEATHER SERVICE FORT WORTH TX
700 AM CDT MON JUL 28 2014

NOTE: "FAIR" INDICATES FEW OR NO CLOUDS BELOW 12,000 FEET WITH NO
SIGNIFICANT WEATHER AND/OR OBSTRUCTIONS TO VISIBILITY.

TXZ118-119-281300-
DALLAS/FORT WORTH METROPLEX

CITY           SKY/WX    TMP DP  RH WIND       PRES   REMARKS
DFW AIRPORT    PTCLDY    82  72  71 N10       30.09R
6HR MIN TEMP:  81; 6HR MAX TEMP:  88;

DALLAS LOVE    MOCLDY    83  70  64 CALM      30.08R
6HR MIN TEMP:  82; 6HR MAX TEMP:  89;

FTW MEACHAM    PTCLDY    83  69  62 NE6       30.09R
6HR MIN TEMP:  81; 6HR MAX TEMP:  88;

DAL-EXECUTIVE  PTCLDY    82  70  66 N6        30.08R
6HR MIN TEMP:  82; 6HR MAX TEMP:  87;

FTW-ALLIANCE   MOCLDY    80  69  69 NE5       30.09R
6HR MIN TEMP:  79; 6HR MAX TEMP:  85;

FTW-NAS-JRB    PTCLDY    85  68  56 N7        30.13R
6HR MIN TEMP:  82; 6HR MAX TEMP:  89;

FTW-SPINKS     MOCLDY    79  70  73 CALM      30.09R
ARLINGTON      MOCLDY    81  70  69 CALM      30.09R
6HR MIN TEMP:  79; 6HR MAX TEMP:  86;

GRAND PRAIRIE  PTCLDY    81  70  69 MISG      30.09R
ADDISON        PTCLDY    82  70  65 N7        30.09R
MESQUITE       MOCLDY    75  72  88 CALM      30.08R
LANCASTER      CLEAR     74  68  80 CALM      30.09R
6HR MIN TEMP:  74; 6HR MAX TEMP:  83;

$$

TXZ091>094-102>105-117-120-121-131>134-281300-
NORTH CENTRAL TEXAS

CITY           SKY/WX    TMP DP  RH WIND       PRES   REMARKS
SHRMAN/DENISON CLOUDY    80  64  57 NE7       30.11S
6HR MIN TEMP:  79; 6HR MAX TEMP:  86;

GAINESVILLE    LGT RAIN  75  69  84 N6        30.14R
6HR MIN TEMP:  75; 6HR MAX TEMP:  85;

BOWIE          MOCLDY    77  71  80 N10       30.12R
6HR MIN TEMP:  76; 6HR MAX TEMP:  82; 6HR PCP:  0.03;

BRIDGEPORT     CLOUDY    79  66  62 E3        30.12R
6HR MIN TEMP:  75; 6HR MAX TEMP:  84;

DECATUR        MOCLDY    78  71  80 E6        30.11S
6HR MIN TEMP:  78; 6HR MAX TEMP:  86;

DENTON         PTCLDY    80  72  76 NE7       30.09R
6HR MIN TEMP:  78; 6HR MAX TEMP:  84;

MCKINNEY       PTCLDY    77  73  87 CALM      30.08R
6HR MIN TEMP:  77; 6HR MAX TEMP:  83;

GREENVILLE     PTCLDY    77  72  83 CALM      30.08S
ROCKWALL       MOCLDY    78  73  83 CALM      30.07S
6HR MIN TEMP:  78; 6HR MAX TEMP:  82;

TERRELL        MOCLDY    79  74  84 NW3       30.09R
6HR MIN TEMP:  77; 6HR MAX TEMP:  83;

WAXAHACHIE     CLEAR     79  67  67 SW3       30.09R
6HR MIN TEMP:  79; 6HR MAX TEMP:  83;

CLEBURNE       CLEAR     77  73  88 S3        30.10R
GRANBURY       CLEAR     77  69  75 CALM      30.09R
6HR MIN TEMP:  77; 6HR MAX TEMP:  85;

$$

TXZ083>090-098>101-113>116-127>130-139>142-154-155-281300-
WESTERN NORTH TEXAS

CITY           SKY/WX    TMP DP  RH WIND       PRES   REMARKS
WICHITA FALLS  TSTM      76  71  85 E17       30.12R
6HR MIN TEMP:  75; 6HR MAX TEMP:  86; 6HR PCP:  0.11;

WF-KICKAPOO    CLOUDY    78  71  78 E14G21    30.13R
6HR MIN TEMP:  77; 6HR MAX TEMP:  87;

VERNON         MOCLDY    79  66  64 E16       30.14R
6HR MIN TEMP:  79; 6HR MAX TEMP:  96;

ABILENE        CLEAR     77  64  64 SE9       30.12R
6HR MIN TEMP:  77; 6HR MAX TEMP:  83;

ABILENE-DYESS  CLEAR     76  63  65 S5        30.11R
6HR MIN TEMP:  74; 6HR MAX TEMP:  83;

BRECKENRIDGE   MOCLDY    81  64  56 S3        30.09R
6HR MIN TEMP:  80; 6HR MAX TEMP:  87;

GRAHAM         CLOUDY    79  65  62 NE3       30.10R
6HR MIN TEMP:  78; 6HR MAX TEMP:  86;

MINERAL WELLS  CLOUDY    77  68  73 SE5       30.07R
6HR MIN TEMP:  76; 6HR MAX TEMP:  83;

STEPHENVILLE   CLEAR     74  67  77 CALM      30.13R
6HR MIN TEMP:  74; 6HR MAX TEMP:  81;

COMANCHE       CLEAR     73  66  78 CALM      30.11R
6HR MIN TEMP:  73; 6HR MAX TEMP:  81;

BROWNWOOD      CLEAR     72  66  83 CALM      30.12R
COLEMAN        CLEAR     75  65  70 CALM      30.13R
6HR MIN TEMP:  74; 6HR MAX TEMP:  82;

BRADY          CLEAR     75  70  83 S3        30.13R
$$

TXZ143>147-156>162-174-175-281300-
CENTRAL TEXAS

CITY           SKY/WX    TMP DP  RH WIND       PRES   REMARKS
WACO           CLEAR     76  69  79 S10       30.07S
6HR MIN TEMP:  76; 6HR MAX TEMP:  85;

WACO-TSTC      CLEAR     75  70  83 S5        30.08
WACO-MCGREGOR  CLEAR     73  66  78 S6        30.09F
6HR MIN TEMP:  73; 6HR MAX TEMP:  82;

HILLSBORO      CLEAR     75  68  78 S3        30.08S
6HR MIN TEMP:  75; 6HR MAX TEMP:  85;

CORSICANA      PTCLDY    77  71  82 S7        30.08S
6HR MIN TEMP:  77; 6HR MAX TEMP:  83;

MEXIA          CLEAR     75  71  87 S5        30.08S
6HR MIN TEMP:  75; 6HR MAX TEMP:  82;

HEARNE         CLEAR    N/A N/A N/A CALM      30.09S
CAMERON        CLEAR     74  71  91 CALM      30.09S
6HR MIN TEMP:  74; 6HR MAX TEMP:  83;

TEMPLE         CLEAR     72  64  78 SE6       30.10R
6HR MIN TEMP:  72; 6HR MAX TEMP:  82;

KILLEEN        PTCLDY    75  68  78 S6        30.10R
KILLEEN-SKYLRK CLEAR     73  64  73 S5        30.10R
6HR MIN TEMP:  73; 6HR MAX TEMP:  82;

FORT HOOD      CLEAR     77  69  76 SE5       30.10R
6HR MIN TEMP:  77; 6HR MAX TEMP:  85;

GATESVILLE     CLEAR     73  68  83 SE3       30.11S
HAMILTON       CLEAR     74  67  77 S13       30.11S
6HR MIN TEMP:  74; 6HR MAX TEMP:  82;

LAMPASAS       CLEAR     74  70  87 CALM      30.10R
6HR MIN TEMP:  73; 6HR MAX TEMP:  82;

$$

TXZ095>097-106>112-122>126-135>138-148>153-164>167-281300-
EAST TEXAS

CITY           SKY/WX    TMP DP  RH WIND       PRES   REMARKS
PARIS          CLOUDY    79  72  78 N8        30.08R
6HR MIN TEMP:  77; 6HR MAX TEMP:  82; 6HR PCP:  0.01;

SULPHUR SPRNGS MOCLDY    80  73  81 S7        30.08F
6HR MIN TEMP:  78; 6HR MAX TEMP:  83;

CLARKSVILLE    CLOUDY    78  76  93 CALM      30.07R
6HR MIN TEMP:  77; 6HR MAX TEMP:  83; 6HR PCP:  0.11;

MOUNT PLEASANT MOCLDY    78  74  87 SE3       30.08R
6HR MIN TEMP:  76; 6HR MAX TEMP:  82;

GILMER         PTCLDY    79  75  89 N5        30.10R
MINEOLA        PTCLDY    79  73  83 N6        30.09R
TYLER          PTCLDY    79  73  82 SW7       30.07S
6HR MIN TEMP:  78; 6HR MAX TEMP:  81;

LONGVIEW       PTCLDY    78  73  84 SW5       30.06S
6HR MIN TEMP:  76; 6HR MAX TEMP:  79;

MARSHALL       MOCLDY    80  75  86 W5        30.09R
6HR MIN TEMP:  76; 6HR MAX TEMP:  80;

ATHENS         CLEAR     73  72  94 CALM      30.07S
JACKSONVILLE   CLEAR     76  73  91 SW5       30.11R
HENDERSON      MOCLDY    76  74  95 CALM      30.09R
6HR MIN TEMP:  75; 6HR MAX TEMP:  78;

NACOGDOCHES    CLEAR     75  73  94 CALM      30.09R
6HR MIN TEMP:  73; 6HR MAX TEMP:  79;

LUFKIN         CLEAR     77  74  90 CALM      30.09R FOG
6HR MIN TEMP:  77; 6HR MAX TEMP:  83;

$$

SUPPLEMENTAL OBSERVATIONS (CENTRAL)

CITY           SKY/WX    TMP DP  RH WIND       PRES   REMARKS
LAKE TEXOMA      N/A     79  63  57 N2          N/A
CADDO GRASSLND   N/A     79  75  89 N2          N/A
PAT MAYSE LAKE   N/A     77  75  94 NW3         N/A
GREENVILLE       N/A     75  72  88 SW2         N/A
CEDAR HILL       N/A     79  72  78 N2          N/A
PALESTINE        N/A     75  72  88 SW1         N/A
LAKE LIMESTONE   N/A     73  72  94 CALM        N/A
MCGREGOR         N/A     72  66  83 SW3         N/A
TEMPLE           N/A     73  70  88 S5          N/A


USA.gov is the U.S. government's official web portal to all federal, state and local government web resources and services.